H1 CPF 2 NER 2020 11 21 9 326 01 glonass135 H2 1600801 9135 41330 2020 11 21 0 0 0 2020 11 24 23 45 0 900 1 1 0 0 0 1 H9 10 0 59174 0.00000 0 14098736.580 -17861844.218 -11560251.686 10 0 59174 900.00000 0 14935266.535 -18807156.053 -8651272.194 10 0 59174 1800.00000 0 15434816.604 -19556163.633 -5574594.609 10 0 59174 2700.00000 0 15619281.059 -20054802.039 -2389887.584 10 0 59174 3600.00000 0 15521925.678 -20256405.380 841122.532 10 0 59174 4500.00000 0 15185769.820 -20123793.314 4055842.058 10 0 59174 5400.00000 0 14661574.118 -19630976.467 7192014.917 10 0 59174 6300.00000 0 14005518.840 -18764409.354 10188919.353 10 0 59174 7200.00000 0 13276670.735 -17523738.396 12988533.827 10 0 59174 8100.00000 0 12534344.683 -15922013.487 15536650.347 10 0 59174 9000.00000 0 11835470.600 -13985353.630 17783914.570 10 0 59174 9900.00000 0 11232075.604 -11752079.698 19686773.389 10 0 59174 10800.00000 0 10768986.597 -9271349.130 21208312.597 10 0 59174 11700.00000 0 10481849.209 -6601347.727 22318969.166 10 0 59174 12600.00000 0 10395546.010 -3807111.965 22997104.880 10 0 59174 13500.00000 0 10523080.469 -958070.284 23229430.494 10 0 59174 14400.00000 0 10864974.047 1874596.543 23011272.106 10 0 59174 15300.00000 0 11409202.652 4620668.125 22346674.055 10 0 59174 16200.00000 0 12131676.482 7213559.168 21248335.526 10 0 59174 17100.00000 0 12997244.691 9592846.314 19737380.823 10 0 59174 18000.00000 0 13961184.344 11706542.621 17842966.386 10 0 59174 18900.00000 0 14971112.652 13513025.362 15601730.603 10 0 59174 19800.00000 0 15969243.332 14982536.678 13057095.581 10 0 59174 20700.00000 0 16894892.859 16098193.950 10258433.216 10 0 59174 21600.00000 0 17687131.261 16856467.144 7260110.781 10 0 59174 22500.00000 0 18287465.241 17267102.676 4120434.089 10 0 59174 23400.00000 0 18642439.356 17352496.638 900508.866 10 0 59174 24300.00000 0 18706043.953 17146543.867 -2336957.006 10 0 59174 25200.00000 0 18441826.269 16693011.814 -5528886.102 10 0 59174 26100.00000 0 17824613.564 16043508.683 -8613073.536 10 0 59174 27000.00000 0 16841773.579 15255132.933 -11529412.845 10 0 59174 27900.00000 0 15493957.392 14387905.005 -14221080.272 10 0 59174 28800.00000 0 13795292.056 13502091.460 -16635652.932 10 0 59174 29700.00000 0 11773013.936 12655536.235 -18726137.958 10 0 59174 30600.00000 0 9466557.684 11901113.132 -20451891.898 10 0 59174 31500.00000 0 6926139.015 11284408.137 -21779412.042 10 0 59174 32400.00000 0 4210890.829 10841729.919 -22682984.462 10 0 59174 33300.00000 0 1386630.920 10598532.444 -23145176.633 10 0 59174 34200.00000 0 -1476645.121 10568315.766 -23157165.830 10 0 59174 35100.00000 0 -4307441.116 10752050.439 -22718897.924 10 0 59174 36000.00000 0 -7035496.234 11138148.648 -21839074.586 10 0 59174 36900.00000 0 -9594466.141 11702982.010 -20534970.204 10 0 59174 37800.00000 0 -11924438.664 12411922.944 -18832083.070 10 0 59174 38700.00000 0 -13974180.599 13220864.629 -16763628.420 10 0 59174 39600.00000 0 -15703023.617 14078154.584 -14369883.859 10 0 59174 40500.00000 0 -17082312.678 14926859.837 -11697400.348 10 0 59174 41400.00000 0 -18096358.630 15707267.901 -8798094.333 10 0 59174 42300.00000 0 -18742857.342 16359518.159 -5728238.836 10 0 59174 43200.00000 0 -19032759.976 16826253.028 -2547373.080 10 0 59174 44100.00000 0 -18989601.769 17055177.589 682848.378 10 0 59174 45000.00000 0 -18648319.032 17001420.389 3899844.839 10 0 59174 45900.00000 0 -18053605.302 16629596.525 7041314.343 10 0 59174 46800.00000 0 -17257876.400 15915486.592 10046431.435 10 0 59174 47700.00000 0 -16318930.249 14847261.132 12857015.165 10 0 59174 48600.00000 0 -15297399.651 13426199.052 15418645.535 10 0 59174 49500.00000 0 -14254104.579 11666869.355 17681707.654 10 0 59174 50400.00000 0 -13247414.461 9596767.721 19602344.251 10 0 59174 51300.00000 0 -12330730.353 7255421.753 21143299.033 10 0 59174 52200.00000 0 -11550191.801 4693000.476 22274635.356 10 0 59174 53100.00000 0 -10942703.961 1968484.077 22974316.825 10 0 59174 54000.00000 0 -10534367.276 -852532.179 23228638.899 10 0 59174 54900.00000 0 -10339375.564 -3700310.834 23032503.055 10 0 59174 55800.00000 0 -10359429.118 -6503621.169 22389527.714 10 0 59174 56700.00000 0 -10583688.236 -9192456.070 21311992.952 10 0 59174 57600.00000 0 -10989270.229 -11700705.362 19820618.836 10 0 59174 58500.00000 0 -11542270.371 -13968675.386 17944180.301 10 0 59174 59400.00000 0 -12199265.171 -15945350.432 15718964.468 10 0 59174 60300.00000 0 -12909235.930 -17590301.827 13188079.426 10 0 59174 61200.00000 0 -13615832.342 -18875164.511 10400626.649 10 0 59174 62100.00000 0 -14259881.086 -19784618.777 7410752.126 10 0 59174 63000.00000 0 -14782033.297 -20316835.398 4276594.121 10 0 59174 63900.00000 0 -15125438.277 -20483364.779 1059148.088 10 0 59174 64800.00000 0 -15238329.105 -20308474.561 -2178928.709 10 0 59174 65700.00000 0 -15076409.064 -19827963.607 -5374548.660 10 0 59174 66600.00000 0 -14604935.995 -19087502.868 -8465436.002 10 0 59174 67500.00000 0 -13800414.422 -18140574.073 -11391354.050 10 0 59174 68400.00000 0 -12651822.012 -17046094.530 -14095292.080 10 0 59174 69300.00000 0 -11161317.004 -15865829.832 -16524587.229 10 0 59174 70200.00000 0 -9344395.509 -14661705.218 -18631958.468 10 0 59174 71100.00000 0 -7229491.191 -13493130.440 -20376431.775 10 0 59174 72000.00000 0 -4857033.760 -12414452.073 -21724138.089 10 0 59174 72900.00000 0 -2278005.641 -11472641.273 -22648968.673 10 0 59174 73800.00000 0 447942.690 -10705314.508 -23133075.594 10 0 59174 74700.00000 0 3254739.629 -10139170.194 -23167208.361 10 0 59174 75600.00000 0 6072407.746 -9788906.083 -22750881.194 10 0 59174 76500.00000 0 8829742.636 -9656661.680 -21892368.710 10 0 59174 77400.00000 0 11457043.942 -9732007.593 -20608531.204 10 0 59174 78300.00000 0 13888785.451 -9992480.596 -18924473.883 10 0 59174 79200.00000 0 16066114.107 -10404640.306 -16873047.501 10 0 59174 80100.00000 0 17939075.074 -10925601.555 -14494200.753 10 0 59174 81000.00000 0 19468471.751 -11504976.777 -11834197.520 10 0 59174 81900.00000 0 20627285.007 -12087145.742 -8944714.394 10 0 59174 82800.00000 0 21401594.255 -12613756.503 -5881836.240 10 0 59174 83700.00000 0 21790963.851 -13026351.978 -2704969.282 10 0 59174 84600.00000 0 21808280.493 -13269011.519 524307.368 10 0 59174 85500.00000 0 21479050.005 -13290896.450 3743429.602 10 0 59175 0.00000 0 20840184.340 -13048592.732 6890052.955 10 0 59175 900.00000 0 19938330.460 -12508152.033 9903251.552 10 0 59175 1800.00000 0 18827811.852 -11646746.835 12724687.757 10 0 59175 2700.00000 0 17568268.901 -10453867.826 15299731.904 10 0 59175 3600.00000 0 16222096.801 -8932015.189 17578510.435 10 0 59175 4500.00000 0 14851787.779 -7096852.527 19516863.324 10 0 59175 5400.00000 0 13517288.118 -4976816.447 21077193.138 10 0 59175 6300.00000 0 12273479.691 -2612196.204 22229190.128 10 0 59175 7200.00000 0 11167890.591 -53719.944 22950419.814 10 0 59175 8100.00000 0 10238729.939 2639295.884 23226762.049 10 0 59175 9000.00000 0 9513328.656 5401159.302 23052693.005 10 0 59175 9900.00000 0 9007051.447 8162287.978 22431404.142 10 0 59175 10800.00000 0 8722725.789 10851865.630 21374755.057 10 0 59175 11700.00000 0 8650612.544 13400560.949 19903059.917 10 0 59175 12600.00000 0 8768920.289 15743197.126 18044710.234 10 0 59175 13500.00000 0 9044842.782 17821261.551 15835639.727 10 0 59175 14400.00000 0 9436076.911 19585151.276 13318640.155 10 0 59175 15300.00000 0 9892757.949 20996060.086 10542540.099 10 0 59175 16200.00000 0 10359730.936 22027427.656 7561261.672 10 0 59175 17100.00000 0 10779062.168 22665889.230 4432772.919 10 0 59175 18000.00000 0 11092684.076 22911685.057 1217956.298 10 0 59175 18900.00000 0 11245060.449 22778511.756 -2020584.247 10 0 59175 19800.00000 0 11185757.642 22292821.495 -5219753.544 10 0 59175 20700.00000 0 10871811.042 21492598.550 -8317207.402 10 0 59175 21600.00000 0 10269784.587 20425665.397 -11252581.161 10 0 59175 22500.00000 0 9357434.208 19147590.692 -13968679.111 10 0 59175 23400.00000 0 8124903.092 17719288.615 -16412600.123 10 0 59175 24300.00000 0 6575396.793 16204412.231 -18536776.452 10 0 59175 25200.00000 0 4725308.592 14666652.067 -20299904.721 10 0 59175 26100.00000 0 2603789.144 13167054.858 -21667750.521 10 0 59175 27000.00000 0 251778.105 11761476.082 -22613811.097 10 0 59175 27900.00000 0 -2279461.766 10498273.656 -23119823.695 10 0 59175 28800.00000 0 -4930246.556 9416339.502 -23176110.405 10 0 59175 29700.00000 0 -7634729.570 8543550.812 -22781753.828 10 0 59175 30600.00000 0 -10323421.900 7895704.708 -21944601.205 10 0 59175 31500.00000 0 -12925870.087 7475979.410 -20681098.001 10 0 59175 32400.00000 0 -15373379.742 7274942.591 -19015955.183 10 0 59175 33300.00000 0 -17601672.336 7271104.608 -16981657.461 10 0 59175 34200.00000 0 -19553365.352 7431991.474 -14617822.725 10 0 59175 35100.00000 0 -21180173.708 7715690.779 -11970425.612 10 0 59175 36000.00000 0 -22444742.147 8072804.099 -9090900.525 10 0 59175 36900.00000 0 -23322033.622 8448722.706 -6035141.743 10 0 59175 37800.00000 0 -23800217.445 8786130.027 -2862420.022 10 0 59175 38700.00000 0 -23881021.676 9027625.081 365763.445 10 0 59175 39600.00000 0 -23579536.488 9118356.313 3586863.616 10 0 59175 40500.00000 0 -22923478.023 9008554.979 6738496.111 10 0 59175 41400.00000 0 -21951944.502 8655861.597 9759636.843 10 0 59175 42300.00000 0 -20713717.261 8027347.785 12591794.033 10 0 59175 43200.00000 0 -19265178.024 7101148.449 15180130.724 10 0 59175 44100.00000 0 -17667929.381 5867635.592 17474516.944 10 0 59175 45000.00000 0 -15986217.463 4330083.868 19430491.987 10 0 59175 45900.00000 0 -14284263.774 2504799.047 21010119.126 10 0 59175 46800.00000 0 -12623616.656 420702.483 22182717.040 10 0 59175 47700.00000 0 -11060632.042 -1881612.851 22925454.346 10 0 59175 48600.00000 0 -9644187.715 -4351317.610 23223796.106 10 0 59175 49500.00000 0 -8413725.781 -6929215.233 23071793.604 10 0 59175 50400.00000 0 -7397704.670 -9549969.540 22472211.359 10 0 59175 51300.00000 0 -6612525.238 -12144600.378 21436488.112 10 0 59175 52200.00000 0 -6061976.058 -14643145.470 19984531.372 10 0 59175 53100.00000 0 -5737221.685 -16977379.055 18144348.086 10 0 59175 54000.00000 0 -5617335.034 -19083475.077 15951517.082 10 0 59175 54900.00000 0 -5670352.223 -20904504.208 13448511.970 10 0 59175 55800.00000 0 -5854806.190 -22392660.166 10683886.346 10 0 59175 56700.00000 0 -6121674.778 -23511121.589 7711336.131 10 0 59175 57600.00000 0 -6416661.080 -24235470.484 4588656.657 10 0 59175 58500.00000 0 -6682709.217 -24554606.612 1376614.780 10 0 59175 59400.00000 0 -6862648.130 -24471118.379 -1862241.580 10 0 59175 60300.00000 0 -6901850.036 -24001093.851 -5064812.453 10 0 59175 61200.00000 0 -6750789.199 -23173379.435 -8168688.053 10 0 59175 62100.00000 0 -6367390.649 -22028317.551 -11113378.597 10 0 59175 63000.00000 0 -5719067.371 -20616017.009 -13841506.240 10 0 59175 63900.00000 0 -4784357.896 -18994229.904 -16299934.372 10 0 59175 64800.00000 0 -3554093.413 -17225925.644 -18440811.167 10 0 59175 65700.00000 0 -2032043.821 -15376665.491 -20222506.277 10 0 59175 66600.00000 0 -235014.613 -13511889.237 -21610421.995 10 0 59175 67500.00000 0 1807610.062 -11694228.891 -22577663.196 10 0 59175 68400.00000 0 4054859.224 -9980962.614 -23105553.478 10 0 59175 69300.00000 0 6455660.179 -8421715.648 -23183988.203 10 0 59175 70200.00000 0 8950754.652 -7056503.962 -22811618.570 10 0 59175 71100.00000 0 11474965.824 -5914201.371 -21995864.203 10 0 59175 72000.00000 0 13959721.504 -5011492.773 -20752755.068 10 0 59175 72900.00000 0 16335728.364 -4352355.319 -19106606.806 10 0 59175 73800.00000 0 18535686.144 -3928087.099 -17089536.580 10 0 59175 74700.00000 0 20496929.197 -3717879.944 -14740829.548 10 0 59175 75600.00000 0 22163886.161 -3689910.185 -12106168.745 10 0 59175 76500.00000 0 23490256.229 -3802899.680 -9236743.608 10 0 59175 77400.00000 0 24440812.426 -4008079.958 -6188254.675 10 0 59175 78300.00000 0 24992757.956 -4251475.662 -3019833.774 10 0 59175 79200.00000 0 25136580.332 -4476410.368 207099.468 10 0 59175 80100.00000 0 24876368.845 -4626128.861 3430022.774 10 0 59175 81000.00000 0 24229583.259 -4646425.264 6586515.407 10 0 59175 81900.00000 0 23226284.280 -4488166.390 9615458.595 10 0 59175 82800.00000 0 21907858.548 -4109604.271 12458209.448 10 0 59175 83700.00000 0 20325291.693 -3478380.665 15059726.413 10 0 59175 84600.00000 0 18537061.434 -2573139.214 17369625.385 10 0 59175 85500.00000 0 16606738.258 -1384677.238 19343146.808 10 0 59176 0.00000 0 14600392.982 83411.823 20942016.029 10 0 59176 900.00000 0 12583918.342 1814633.870 22135181.174 10 0 59176 1800.00000 0 10620374.937 3780032.188 22899414.499 10 0 59176 2700.00000 0 8767471.678 5939153.797 23219766.389 10 0 59176 3600.00000 0 7075283.707 8241504.190 23089862.950 10 0 59176 4500.00000 0 5584303.070 10628433.351 22512041.040 10 0 59176 5400.00000 0 4323902.496 13035376.392 21497317.413 10 0 59176 6300.00000 0 3311276.360 15394357.779 20065191.374 10 0 59176 7200.00000 0 2550903.291 17636656.402 18243283.410 10 0 59176 8100.00000 0 2034553.273 19695521.607 16066815.237 10 0 59176 9000.00000 0 1741839.404 21508827.450 13577939.826 10 0 59176 9900.00000 0 1641291.716 23021554.119 10824933.093 10 0 59176 10800.00000 0 1691908.108 24187992.166 7861261.904 10 0 59176 11700.00000 0 1845117.042 24973576.161 4744545.902 10 0 59176 12600.00000 0 2047068.771 25356269.479 1535433.316 10 0 59176 13500.00000 0 2241157.361 25327440.774 -1703586.983 10 0 59176 14400.00000 0 2370665.485 24892194.069 -4909413.157 10 0 59176 15300.00000 0 2381418.354 24069137.721 -8019572.580 10 0 59176 16200.00000 0 2224332.440 22889601.575 -10973452.873 10 0 59176 17100.00000 0 1857749.043 21396335.321 -13713496.285 10 0 59176 18000.00000 0 1249451.972 19641743.399 -16186332.639 10 0 59176 18900.00000 0 378282.283 17685731.603 -18343827.630 10 0 59176 19800.00000 0 -764719.633 15593256.972 -20144025.253 10 0 59176 20700.00000 0 -2175693.778 13431685.066 -21551965.538 10 0 59176 21600.00000 0 -3837888.919 11268066.423 -22540361.765 10 0 59176 22500.00000 0 -5722142.973 9166446.967 -23090124.406 10 0 59176 23400.00000 0 -7787895.222 7185325.176 -23190722.324 10 0 59176 24300.00000 0 -9984687.834 5375361.989 -22840375.214 10 0 59176 25200.00000 0 -12254093.679 3777438.238 -22046074.596 10 0 59176 26100.00000 0 -14531989.580 2421139.376 -20823434.037 10 0 59176 27000.00000 0 -16751080.034 1323728.916 -19196372.523 10 0 59176 27900.00000 0 -18843566.180 489651.263 -17196637.939 10 0 59176 28800.00000 0 -20743848.839 -89417.550 -14863180.626 10 0 59176 29700.00000 0 -22391153.438 -433975.781 -12241389.668 10 0 59176 30600.00000 0 -23731967.955 -575585.654 -9382206.997 10 0 59176 31500.00000 0 -24722192.966 -555295.352 -6341136.762 10 0 59176 32400.00000 0 -25328915.030 -421661.232 -3177169.173 10 0 59176 33300.00000 0 -25531730.379 -228454.640 48360.419 10 0 59176 34200.00000 0 -25323564.600 -32150.621 3272955.197 10 0 59176 35100.00000 0 -24710955.007 110695.331 6434160.743 10 0 59176 36000.00000 0 -23713784.622 146071.889 9470766.238 10 0 59176 36900.00000 0 -22364479.382 25027.464 12323980.236 10 0 59176 37800.00000 0 -20706702.298 -294028.967 14938559.029 10 0 59176 38700.00000 0 -18793598.870 -843338.480 17263866.619 10 0 59176 39600.00000 0 -16685666.480 -1644197.907 19254846.599 10 0 59176 40500.00000 0 -14448335.747 -2705827.973 20872888.109 10 0 59176 41400.00000 0 -12149363.443 -4024752.167 22086569.919 10 0 59176 42300.00000 0 -9856144.361 -5584713.557 22872268.830 10 0 59176 43200.00000 0 -7633052.616 -7357134.761 23214621.033 10 0 59176 44100.00000 0 -5538921.797 -9302103.937 23106827.491 10 0 59176 45000.00000 0 -3624767.799 -11369847.851 22550797.056 10 0 59176 45900.00000 0 -1931848.374 -13502632.962 21557123.780 10 0 59176 46800.00000 0 -490139.755 -15637017.430 20144897.723 10 0 59176 47700.00000 0 682706.150 -17706361.937 18341351.550 10 0 59176 48600.00000 0 1581880.330 -19643495.955 16181348.222 10 0 59176 49500.00000 0 2215388.972 -21383428.889 13706718.153 10 0 59176 50400.00000 0 2603480.256 -22865992.834 10965457.418 10 0 59176 51300.00000 0 2777549.437 -24038305.832 8010801.473 10 0 59176 52200.00000 0 2778568.300 -24856951.406 4900191.766 10 0 59176 53100.00000 0 2655105.422 -25289781.434 1694155.290 10 0 59176 54000.00000 0 2461021.643 -25317265.103 -1544880.776 10 0 59176 54900.00000 0 2252939.294 -24933325.676 -4753815.395 10 0 59176 55800.00000 0 2087593.828 -24145628.513 -7870115.762 10 0 59176 56700.00000 0 2019181.824 -22975307.368 -10833049.533 10 0 59176 57600.00000 0 2096819.623 -21456139.994 -13584881.627 10 0 59176 58500.00000 0 2362222.156 -19633207.827 -16072010.779 10 0 59176 59400.00000 0 2847701.941 -17561096.608 -18246022.523 10 0 59176 60300.00000 0 3574574.359 -15301714.300 -20064637.283 10 0 59176 61200.00000 0 4552037.641 -12921818.906 -21492534.615 10 0 59176 62100.00000 0 5776575.537 -10490360.681 -22502037.628 10 0 59176 63000.00000 0 7231908.172 -8075750.685 -23073644.689 10 0 59176 63900.00000 0 8889493.168 -5743170.307 -23196398.767 10 0 59176 64800.00000 0 10709555.820 -3552033.933 -22868088.249 10 0 59176 65700.00000 0 12642604.828 -1553710.017 -22095276.356 10 0 59176 66600.00000 0 14631369.739 210405.566 -20893159.695 10 0 59176 67500.00000 0 16613078.768 1710385.197 -19285259.673 10 0 59176 68400.00000 0 18521981.632 2928773.913 -17302953.614 10 0 59176 69300.00000 0 20292011.936 3861062.900 -14984855.386 10 0 59176 70200.00000 0 21859478.067 4515614.754 -12376058.074 10 0 59176 71100.00000 0 23165670.625 4913046.094 -9527253.669 10 0 59176 72000.00000 0 24159277.892 5085095.588 -6493747.134 10 0 59176 72900.00000 0 24798509.154 5073026.862 -3334383.955 10 0 59176 73800.00000 0 25052837.867 4925634.939 -110411.893 10 0 59176 74700.00000 0 24904292.528 4696941.152 3115701.115 10 0 59176 75600.00000 0 24348242.065 4443674.218 6281470.357 10 0 59176 76500.00000 0 23393643.422 4222643.862 9325596.219 10 0 59176 77400.00000 0 22062741.384 4088117.529 12189141.725 10 0 59176 78300.00000 0 20390233.254 4089310.462 14816663.741 10 0 59176 79200.00000 0 18421932.957 4268094.474 17157276.777 10 0 59176 80100.00000 0 16212989.725 4657021.612 19165629.625 10 0 59176 81000.00000 0 13825734.655 5277745.773 20802776.885 10 0 59176 81900.00000 0 11327243.547 6139908.936 22036929.345 10 0 59176 82800.00000 0 8786716.076 7240539.498 22844069.299 10 0 59176 83700.00000 0 6272778.752 8563989.188 23208419.294 10 0 59176 84600.00000 0 3850822.266 10082412.907 23122755.298 10 0 59176 85500.00000 0 1580482.675 11756773.394 22588557.842 10 0 59177 0.00000 0 -486629.960 13538330.913 21615997.527 10 0 59177 900.00000 0 -2308861.590 15370558.141 20223753.846 10 0 59177 1800.00000 0 -3856023.324 17191401.667 18438669.977 10 0 59177 2700.00000 0 -5110415.637 18935797.783 16295247.996 10 0 59177 3600.00000 0 -6067326.247 20538338.015 13834993.319 10 0 59177 4500.00000 0 -6734979.197 21935973.230 11105619.463 10 0 59177 5400.00000 0 -7133937.606 23070642.749 8160127.570 10 0 59177 6300.00000 0 -7295984.916 23891717.289 5055777.871 10 0 59177 7200.00000 0 -7262531.849 24358151.698 1852973.029 10 0 59177 8100.00000 0 -7082616.857 24440255.307 -1385924.563 10 0 59177 9000.00000 0 -6810585.501 24121003.662 -4597817.708 10 0 59177 9900.00000 0 -6503548.189 23396834.700 -7720116.330 10 0 59177 10800.00000 0 -6218725.623 22277894.521 -10691970.825 10 0 59177 11700.00000 0 -6010796.147 20787721.441 -13455471.235 10 0 59177 12600.00000 0 -5929359.215 18962381.198 -15956787.356 10 0 59177 13500.00000 0 -6016624.100 16849089.680 -18147226.399 10 0 59177 14400.00000 0 -6305423.105 14504381.447 -19984186.735 10 0 59177 15300.00000 0 -6817634.370 11991901.573 -21431988.659 10 0 59177 16200.00000 0 -7563081.561 9379914.105 -22462566.032 10 0 59177 17100.00000 0 -8538957.182 6738632.006 -23056005.742 10 0 59177 18000.00000 0 -9729793.723 4137480.669 -23200925.187 10 0 59177 18900.00000 0 -11107983.552 1642409.204 -22894681.421 10 0 59177 19800.00000 0 -12634825.258 -686638.821 -22143408.971 10 0 59177 20700.00000 0 -14262051.965 -2797990.666 -20961886.667 10 0 59177 21600.00000 0 -15933777.056 -4650152.803 -19373237.103 10 0 59177 22500.00000 0 -17588775.402 -6213284.771 -17408465.397 10 0 59177 23400.00000 0 -19163004.302 -7470179.181 -15105846.938 10 0 59177 24300.00000 0 -20592258.557 -8416709.400 -12510176.498 10 0 59177 25200.00000 0 -21814848.690 -9061728.704 -9671893.591 10 0 59177 26100.00000 0 -22774190.491 -9426427.434 -6646101.297 10 0 59177 27000.00000 0 -23421197.952 -9543177.284 -3491497.585 10 0 59177 27900.00000 0 -23716379.967 -9453913.043 -269239.781 10 0 59177 28800.00000 0 -23631553.582 -9208121.151 2958235.936 10 0 59177 29700.00000 0 -23151102.653 -8860520.627 6128417.439 10 0 59177 30600.00000 0 -22272729.634 -8468534.488 9179919.168 10 0 59177 31500.00000 0 -21007669.316 -8089658.185 12053661.392 10 0 59177 32400.00000 0 -19380355.557 -7778835.698 14694004.186 10 0 59177 33300.00000 0 -17427554.532 -7585953.337 17049814.991 10 0 59177 34200.00000 0 -15197000.035 -7553556.264 19075449.935 10 0 59177 35100.00000 0 -12745586.649 -7714883.453 20731630.855 10 0 59177 36000.00000 0 -10137194.638 -8092303.558 21986201.928 10 0 59177 36900.00000 0 -7440235.533 -8696217.662 22814751.851 10 0 59177 37800.00000 0 -4725018.709 -9524475.636 23201089.990 10 0 59177 38700.00000 0 -2061046.608 -10562331.806 23137567.340 10 0 59177 39600.00000 0 485650.526 -11782943.337 22625235.729 10 0 59177 40500.00000 0 2855031.059 -13148392.374 21673841.488 10 0 59177 41400.00000 0 4995305.932 -14611191.205 20301652.587 10 0 59177 42300.00000 0 6864856.516 -16116209.341 18535121.234 10 0 59177 43200.00000 0 8433726.769 -17602943.548 16408386.948 10 0 59177 44100.00000 0 9684627.322 -19008036.948 13962628.156 10 0 59177 45000.00000 0 10613409.199 -20267942.175 11245273.553 10 0 59177 45900.00000 0 11228987.007 -21321616.829 8309087.439 10 0 59177 46800.00000 0 11552714.538 -22113137.307 5211146.084 10 0 59177 47700.00000 0 11617238.989 -22594119.849 2011724.933 10 0 59177 48600.00000 0 11464882.386 -22725845.240 -1226881.375 10 0 59177 49500.00000 0 11145619.240 -22480995.793 -4441582.439 10 0 59177 50400.00000 0 10714736.982 -21844929.504 -7569733.812 10 0 59177 51300.00000 0 10230279.600 -20816435.962 -10550371.408 10 0 59177 52200.00000 0 9750384.397 -19407940.768 -13325413.006 10 0 59177 53100.00000 0 9330626.348 -17645148.924 -15840801.883 10 0 59177 54000.00000 0 9021484.194 -15566141.743 -18047569.099 10 0 59177 54900.00000 0 8866036.947 -13219965.180 -19902792.862 10 0 59177 55800.00000 0 8897989.306 -10664769.191 -21370435.757 10 0 59177 56700.00000 0 9140110.100 -7965576.609 -22422043.577 10 0 59177 57600.00000 0 9603149.905 -5191775.396 -23037292.506 10 0 59177 58500.00000 0 10285283.325 -2414439.553 -23204374.728 10 0 59177 59400.00000 0 11172098.923 296409.404 -22920215.936 10 0 59177 60300.00000 0 12237136.585 2874486.541 -22190521.554 10 0 59177 61200.00000 0 13442948.879 5259761.952 -21029651.895 10 0 59177 62100.00000 0 14742641.059 7400709.908 -19460329.677 10 0 59177 63000.00000 0 16081824.401 9256196.651 -17513186.441 10 0 59177 63900.00000 0 17400900.324 10796930.083 -15226157.409 10 0 59177 64800.00000 0 18637579.174 12006413.178 -12643737.044 10 0 59177 65700.00000 0 19729527.906 12881363.710 -9816110.067 10 0 59177 66600.00000 0 20617035.669 13431585.062 -6798175.055 10 0 59177 67500.00000 0 21245585.763 13679295.823 -3648479.590 10 0 59177 68400.00000 0 21568226.493 13657948.242 -428087.496 10 0 59177 69300.00000 0 21547641.895 13410586.719 2800599.949 10 0 59177 70200.00000 0 21157835.998 12987816.515 5975046.348 10 0 59177 71100.00000 0 20385360.322 12445468.794 9033783.225 10 0 59177 72000.00000 0 19230033.406 11842060.526 11917590.942 10 0 59177 72900.00000 0 17705122.135 11236155.993 14570635.392 10 0 59177 73800.00000 0 15836976.862 10683740.566 16941539.292 10 0 59177 74700.00000 0 13664134.851 10235716.594 18984368.148 10 0 59177 75600.00000 0 11235928.275 9935626.153 20659512.790 10 0 59177 76500.00000 0 8610653.298 9817695.846 21934452.224 10 0 59177 77400.00000 0 5853374.751 9905285.594 22784382.667 10 0 59177 78300.00000 0 3033455.787 10209806.683 23192701.061 10 0 59177 79200.00000 0 221913.137 10730155.076 23151333.782 10 0 59177 80100.00000 0 -2511293.891 11452684.814 22660903.862 10 0 59177 81000.00000 0 -5099929.790 12351724.041 21730732.820 10 0 59177 81900.00000 0 -7483995.074 13390613.749 20378675.964 10 0 59177 82800.00000 0 -9611980.703 14523227.435 18630793.012 10 0 59177 83700.00000 0 -11442771.304 15695909.617 16520858.900 10 0 59177 84600.00000 0 -12947117.934 16849753.200 14089722.668 10 0 59177 85500.00000 0 -14108618.513 17923120.894 11384525.501 99